EJU39QT LKPR-LOWI

Flight info

Callsign EJU39QT
Flight time 1h 28m
Altitude 30000
Route DOBEN DCT RUDAP P31 DOSEL/N0455F290 M736 TULSI TULSI3A
Aircraft A320/M-SDE3FGHIRWY/LB1

Departure

Time 2026-05-06 15:10
Airport Václav Havel Airport Prague (LKPR)

Arrival

Time 2026-05-06 16:38
Airport Innsbruck Airport (LOWI)
Time Latitude Longitude Altitude Speed Heading
2026-05-06 14:30 50.10371 14.26748 1174 ft 0 kts 34°
2026-05-06 14:40 50.10370 14.26748 1174 ft 0 kts 34°
2026-05-06 14:52 50.10355 14.26731 1169 ft 4 kts 35°
2026-05-06 14:53 50.10334 14.26713 1174 ft 4 kts 347°
2026-05-06 14:53 50.10327 14.26716 1170 ft 3 kts 304°
2026-05-06 14:58 50.10338 14.26693 1170 ft 5 kts 304°
2026-05-06 14:58 50.10343 14.26620 1171 ft 9 kts 236°
2026-05-06 14:58 50.10285 14.26552 1171 ft 11 kts 215°
2026-05-06 14:59 50.10226 14.26543 1177 ft 9 kts 137°
2026-05-06 14:59 50.10177 14.26641 1177 ft 14 kts 125°
2026-05-06 14:59 50.10121 14.26757 1182 ft 12 kts 127°
2026-05-06 14:59 50.10078 14.26845 1188 ft 9 kts 126°
2026-05-06 15:00 50.10045 14.26917 1192 ft 8 kts 126°
2026-05-06 15:00 50.10008 14.26993 1196 ft 11 kts 126°
2026-05-06 15:00 50.09960 14.27092 1199 ft 11 kts 128°
2026-05-06 15:00 50.09920 14.27111 1202 ft 4 kts 223°
2026-05-06 15:01 50.09915 14.27077 1203 ft 0 kts 264°
2026-05-06 15:01 50.09915 14.27076 1203 ft 1 kts 264°
2026-05-06 15:01 50.09904 14.26956 1205 ft 19 kts 262°
2026-05-06 15:02 50.09886 14.26746 1206 ft 20 kts 263°
2026-05-06 15:02 50.09867 14.26528 1205 ft 21 kts 271°
2026-05-06 15:02 50.09948 14.26305 1198 ft 26 kts 309°
2026-05-06 15:02 50.10065 14.26062 1191 ft 30 kts 307°
2026-05-06 15:03 50.10184 14.25820 1187 ft 28 kts 311°
2026-05-06 15:03 50.10320 14.25674 1186 ft 20 kts 343°
2026-05-06 15:03 50.10459 14.25667 1182 ft 20 kts 13°
2026-05-06 15:03 50.10572 14.25746 1174 ft 13 kts
2026-05-06 15:04 50.10633 14.25658 1171 ft 12 kts 298°
2026-05-06 15:04 50.10621 14.25534 1170 ft 13 kts 232°
2026-05-06 15:04 50.10587 14.25394 1171 ft 15 kts 259°
2026-05-06 15:04 50.10569 14.25239 1168 ft 15 kts 259°
2026-05-06 15:05 50.10528 14.25071 1163 ft 17 kts 245°
2026-05-06 15:05 50.10472 14.24890 1164 ft 20 kts 243°
2026-05-06 15:05 50.10412 14.24700 1165 ft 19 kts 244°
2026-05-06 15:05 50.10371 14.24532 1166 ft 14 kts 257°
2026-05-06 15:06 50.10354 14.24379 1168 ft 14 kts 264°
2026-05-06 15:06 50.10405 14.24252 1165 ft 16 kts 336°
2026-05-06 15:06 50.10520 14.24273 1163 ft 19 kts 32°
2026-05-06 15:06 50.10578 14.24335 1163 ft 3 kts 35°
2026-05-06 15:07 50.10586 14.24345 1163 ft 0 kts 35°
2026-05-06 15:07 50.10590 14.24349 1163 ft 3 kts 35°
2026-05-06 15:07 50.10629 14.24392 1163 ft 11 kts 35°
2026-05-06 15:08 50.10705 14.24493 1159 ft 14 kts 45°
2026-05-06 15:08 50.10753 14.24582 1162 ft 9 kts 63°
2026-05-06 15:08 50.10738 14.24665 1160 ft 8 kts 126°
2026-05-06 15:08 50.10706 14.24732 1161 ft 7 kts 127°
2026-05-06 15:09 50.10680 14.24784 1162 ft 9 kts 127°
2026-05-06 15:09 50.10490 14.25176 1167 ft 84 kts 127°
2026-05-06 15:09 50.10012 14.26167 1193 ft 144 kts 127°
2026-05-06 15:09 50.09325 14.27549 1494 ft 166 kts 129°
2026-05-06 15:10 50.08566 14.28830 2292 ft 160 kts 151°
2026-05-06 15:10 50.07464 14.29034 2805 ft 170 kts 197°
2026-05-06 15:10 50.06420 14.28032 3169 ft 188 kts 219°
2026-05-06 15:10 50.05363 14.26657 3488 ft 208 kts 219°
2026-05-06 15:11 50.04189 14.25121 3767 ft 234 kts 219°
2026-05-06 15:11 50.02874 14.23396 4187 ft 258 kts 219°
2026-05-06 15:11 50.01462 14.21540 4720 ft 278 kts 219°
2026-05-06 15:11 50.00025 14.19641 5941 ft 264 kts 219°
2026-05-06 15:12 49.98652 14.17815 7041 ft 260 kts 219°
2026-05-06 15:12 49.97257 14.15957 7750 ft 268 kts 219°
2026-05-06 15:12 49.95978 14.13816 8617 ft 273 kts 234°
2026-05-06 15:12 49.95109 14.11179 9509 ft 278 kts 249°
2026-05-06 15:13 49.94553 14.08272 10127 ft 290 kts 251°
2026-05-06 15:13 49.93959 14.05144 10364 ft 313 kts 251°
2026-05-06 15:13 49.93320 14.01807 10669 ft 331 kts 251°
2026-05-06 15:13 49.92656 13.98349 11341 ft 337 kts 251°
2026-05-06 15:14 49.91985 13.94862 12116 ft 339 kts 251°
2026-05-06 15:14 49.91307 13.91342 12897 ft 341 kts 251°
2026-05-06 15:14 49.90472 13.87896 13665 ft 341 kts 242°
2026-05-06 15:14 49.89253 13.84738 14335 ft 343 kts 236°
2026-05-06 15:15 49.87956 13.81629 14989 ft 344 kts 236°
2026-05-06 15:15 49.86651 13.78503 15655 ft 347 kts 236°
2026-05-06 15:15 49.85342 13.75362 16306 ft 349 kts 236°
2026-05-06 15:15 49.84037 13.72231 16956 ft 351 kts 236°
2026-05-06 15:16 49.82690 13.68997 17628 ft 353 kts 235°
2026-05-06 15:16 49.81375 13.65839 18231 ft 356 kts 235°
2026-05-06 15:16 49.80030 13.62610 18794 ft 358 kts 235°
2026-05-06 15:16 49.78587 13.59447 19363 ft 359 kts 228°
2026-05-06 15:17 49.76779 13.56770 19943 ft 361 kts 217°
2026-05-06 15:17 49.74643 13.54727 20500 ft 363 kts 206°
2026-05-06 15:17 49.72281 13.53304 21037 ft 366 kts 201°
2026-05-06 15:17 49.69869 13.51967 21569 ft 368 kts 201°
2026-05-06 15:18 49.67456 13.50623 22104 ft 370 kts 201°
2026-05-06 15:18 49.65023 13.49262 22609 ft 373 kts 201°
2026-05-06 15:18 49.62579 13.47892 23089 ft 375 kts 201°
2026-05-06 15:18 49.60121 13.46513 23529 ft 377 kts 201°
2026-05-06 15:19 49.57651 13.45130 23912 ft 379 kts 201°
2026-05-06 15:19 49.55162 13.43739 24291 ft 381 kts 201°
2026-05-06 15:19 49.52655 13.42340 24697 ft 383 kts 201°
2026-05-06 15:19 49.50144 13.40945 25075 ft 385 kts 201°
2026-05-06 15:20 49.47613 13.39542 25434 ft 387 kts 202°
2026-05-06 15:20 49.45074 13.38133 25787 ft 389 kts 202°
2026-05-06 15:20 49.42519 13.36714 26136 ft 391 kts 202°
2026-05-06 15:20 49.39959 13.35293 26482 ft 393 kts 202°
2026-05-06 15:21 49.37378 13.33862 26819 ft 395 kts 202°
2026-05-06 15:21 49.34787 13.32428 27156 ft 396 kts 202°
2026-05-06 15:21 49.32194 13.30998 27481 ft 398 kts 202°
2026-05-06 15:21 49.29613 13.29579 27798 ft 400 kts 202°
2026-05-06 15:22 49.26988 13.28138 28107 ft 401 kts 202°
2026-05-06 15:22 49.24366 13.26673 28394 ft 402 kts 205°
2026-05-06 15:22 49.21835 13.24847 28669 ft 402 kts 208°
2026-05-06 15:22 49.19322 13.22956 28964 ft 404 kts 208°
2026-05-06 15:23 49.16797 13.21057 29233 ft 405 kts 208°
2026-05-06 15:23 49.14267 13.19156 29474 ft 406 kts 208°
2026-05-06 15:23 49.11734 13.17252 29711 ft 405 kts 208°
2026-05-06 15:24 49.06739 13.13517 29747 ft 395 kts 208°
2026-05-06 15:24 49.01812 13.09853 29747 ft 394 kts 208°
2026-05-06 15:25 48.96884 13.06208 29745 ft 393 kts 208°
2026-05-06 15:25 48.91969 13.02571 29739 ft 393 kts 208°
2026-05-06 15:26 48.87090 12.98964 29733 ft 392 kts 208°
2026-05-06 15:26 48.82181 12.95341 29729 ft 392 kts 208°
2026-05-06 15:27 48.77239 12.91715 29726 ft 392 kts 208°
2026-05-06 15:27 48.72539 12.87712 29719 ft 389 kts 219°
2026-05-06 15:28 48.68532 12.82230 29717 ft 389 kts 223°
2026-05-06 15:28 48.64515 12.76664 29714 ft 389 kts 223°
2026-05-06 15:29 48.60550 12.71195 29707 ft 389 kts 223°
2026-05-06 15:29 48.56563 12.65666 29168 ft 387 kts 223°
2026-05-06 15:29 48.54576 12.62902 28092 ft 390 kts 223°
2026-05-06 15:30 48.52581 12.60130 27282 ft 389 kts 222°
2026-05-06 15:30 48.50592 12.57373 26596 ft 386 kts 222°
2026-05-06 15:30 48.48623 12.54651 25927 ft 383 kts 222°
2026-05-06 15:30 48.46673 12.51963 25285 ft 380 kts 222°
2026-05-06 15:31 48.44732 12.49285 24656 ft 377 kts 222°
2026-05-06 15:31 48.42789 12.46637 24037 ft 374 kts 221°
2026-05-06 15:31 48.40839 12.44090 23442 ft 371 kts 220°
2026-05-06 15:32 48.36901 12.39125 22144 ft 366 kts 219°
2026-05-06 15:32 48.34951 12.36678 21543 ft 364 kts 219°
2026-05-06 15:32 48.33017 12.34239 20966 ft 361 kts 219°
2026-05-06 15:32 48.31105 12.31813 20410 ft 359 kts 220°
2026-05-06 15:33 48.29228 12.29425 19877 ft 357 kts 220°
2026-05-06 15:33 48.27339 12.27020 19346 ft 355 kts 220°
2026-05-06 15:33 48.25462 12.24634 18829 ft 354 kts 220°
2026-05-06 15:33 48.23581 12.22248 18308 ft 352 kts 220°
2026-05-06 15:34 48.21711 12.19881 17761 ft 351 kts 220°
2026-05-06 15:34 48.19851 12.17528 17199 ft 349 kts 220°
2026-05-06 15:34 48.18004 12.15194 16624 ft 348 kts 220°
2026-05-06 15:34 48.16156 12.12863 16083 ft 346 kts 220°
2026-05-06 15:35 48.14318 12.10546 15551 ft 345 kts 220°
2026-05-06 15:35 48.12492 12.08244 15032 ft 343 kts 220°
2026-05-06 15:35 48.10665 12.05947 14502 ft 342 kts 220°
2026-05-06 15:35 48.08852 12.03668 14008 ft 340 kts 220°
2026-05-06 15:36 48.07043 12.01393 13496 ft 339 kts 220°
2026-05-06 15:36 48.05242 11.99131 12945 ft 338 kts 220°
2026-05-06 15:36 48.03449 11.96878 12427 ft 335 kts 220°
2026-05-06 15:36 48.01673 11.94652 11889 ft 333 kts 220°
2026-05-06 15:37 47.99903 11.92439 11387 ft 330 kts 219°
2026-05-06 15:37 47.98146 11.90248 10874 ft 328 kts 219°
2026-05-06 15:37 47.96402 11.88073 10356 ft 326 kts 219°
2026-05-06 15:37 47.94673 11.85920 9869 ft 323 kts 219°
2026-05-06 15:38 47.92980 11.83822 9732 ft 309 kts 217°
2026-05-06 15:38 47.91229 11.82096 9602 ft 295 kts 208°
2026-05-06 15:38 47.89396 11.80865 9474 ft 284 kts 200°
2026-05-06 15:38 47.87533 11.80100 9440 ft 273 kts 192°
2026-05-06 15:39 47.85654 11.79752 9446 ft 272 kts 184°
2026-05-06 15:39 47.83757 11.79649 9449 ft 273 kts 183°
2026-05-06 15:39 47.81860 11.79550 9447 ft 272 kts 183°
2026-05-06 15:39 47.79968 11.79445 9448 ft 272 kts 184°
2026-05-06 15:40 47.78100 11.79337 9447 ft 272 kts 184°
2026-05-06 15:40 47.76209 11.79226 9444 ft 272 kts 184°
2026-05-06 15:40 47.74319 11.79117 9444 ft 271 kts 184°
2026-05-06 15:40 47.72425 11.79111 9442 ft 272 kts 181°
2026-05-06 15:41 47.70586 11.78653 9441 ft 268 kts 205°
2026-05-06 15:41 47.69120 11.76991 9445 ft 269 kts 231°
2026-05-06 15:41 47.68122 11.74639 9450 ft 271 kts 239°
2026-05-06 15:41 47.67210 11.72192 9451 ft 271 kts 239°
2026-05-06 15:42 47.66306 11.69739 9454 ft 272 kts 239°
2026-05-06 15:42 47.65706 11.68108 9458 ft 272 kts 239°
2026-05-06 15:42 47.64498 11.64820 9461 ft 271 kts 239°
2026-05-06 15:42 47.63894 11.63194 9461 ft 271 kts 239°
2026-05-06 15:43 47.62984 11.60743 9465 ft 271 kts 239°
2026-05-06 15:43 47.62076 11.58296 9469 ft 270 kts 239°
2026-05-06 15:43 47.61166 11.55867 9466 ft 269 kts 239°
2026-05-06 15:43 47.60345 11.53359 9469 ft 271 kts 247°
2026-05-06 15:44 47.59717 11.50709 9478 ft 272 kts 249°
2026-05-06 15:44 47.59113 11.48058 9476 ft 272 kts 249°
2026-05-06 15:44 47.58511 11.45396 9480 ft 272 kts 249°
2026-05-06 15:44 47.57914 11.42723 9487 ft 273 kts 249°
2026-05-06 15:45 47.57309 11.40052 9488 ft 273 kts 250°
2026-05-06 15:45 47.56708 11.37386 9495 ft 274 kts 249°
2026-05-06 15:45 47.56102 11.34711 9500 ft 274 kts 249°
2026-05-06 15:45 47.55493 11.32029 9496 ft 275 kts 249°
2026-05-06 15:46 47.54882 11.29342 9499 ft 276 kts 249°
2026-05-06 15:46 47.54274 11.26655 9503 ft 276 kts 249°
2026-05-06 15:46 47.53664 11.23967 9508 ft 276 kts 249°
2026-05-06 15:46 47.53049 11.21264 9509 ft 277 kts 249°
2026-05-06 15:47 47.52440 11.18569 9508 ft 277 kts 249°
2026-05-06 15:47 47.52032 11.16786 9514 ft 276 kts 249°
2026-05-06 15:47 47.51927 11.16333 9533 ft 275 kts 252°
2026-05-06 15:47 47.51414 11.13580 9507 ft 276 kts 250°
2026-05-06 15:48 47.50809 11.10845 9516 ft 276 kts 249°
2026-05-06 15:48 47.50208 11.08177 9521 ft 276 kts 249°
2026-05-06 15:48 47.49596 11.05476 9524 ft 277 kts 249°
2026-05-06 15:48 47.48987 11.02783 9525 ft 276 kts 249°
2026-05-06 15:49 47.48377 11.00089 9528 ft 277 kts 249°
2026-05-06 15:49 47.47772 10.97392 9524 ft 276 kts 249°
2026-05-06 15:49 47.47167 10.94693 9538 ft 277 kts 249°
2026-05-06 15:49 47.46572 10.92026 9536 ft 265 kts 249°
2026-05-06 15:50 47.46017 10.89515 9538 ft 249 kts 249°
2026-05-06 15:50 47.45489 10.87116 9540 ft 244 kts 249°
2026-05-06 15:50 47.44970 10.84740 9544 ft 242 kts 249°
2026-05-06 15:50 47.44449 10.82369 9549 ft 240 kts 249°
2026-05-06 15:51 47.43927 10.80027 9552 ft 241 kts 250°
2026-05-06 15:51 47.43411 10.77687 9561 ft 237 kts 249°
2026-05-06 15:51 47.42925 10.75397 9561 ft 233 kts 249°
2026-05-06 15:51 47.42447 10.73116 9565 ft 231 kts 249°
2026-05-06 15:52 47.41969 10.70846 9564 ft 232 kts 249°
2026-05-06 15:52 47.41491 10.68563 9571 ft 232 kts 249°
2026-05-06 15:52 47.40942 10.66352 9574 ft 230 kts 241°
2026-05-06 15:52 47.40225 10.64252 9569 ft 228 kts 239°
2026-05-06 15:53 47.39481 10.62180 9578 ft 230 kts 239°
2026-05-06 15:53 47.38731 10.60096 9580 ft 230 kts 237°
2026-05-06 15:53 47.37642 10.58434 9580 ft 226 kts 207°
2026-05-06 15:53 47.36180 10.57654 9580 ft 227 kts 196°
2026-05-06 15:54 47.34695 10.57100 9583 ft 215 kts 195°
2026-05-06 15:54 47.33278 10.56602 9568 ft 206 kts 194°
2026-05-06 15:54 47.31877 10.56105 9601 ft 209 kts 194°
2026-05-06 15:54 47.30462 10.55887 9568 ft 206 kts 172°
2026-05-06 15:55 47.29182 10.56878 9560 ft 216 kts 137°
2026-05-06 15:55 47.28444 10.58840 9561 ft 225 kts 110°
2026-05-06 15:55 47.28358 10.61142 9565 ft 231 kts 82°
2026-05-06 15:55 47.28751 10.63455 9559 ft 232 kts 78°
2026-05-06 15:56 47.29016 10.65781 9560 ft 230 kts 89°
2026-05-06 15:56 47.29133 10.68140 9554 ft 231 kts 89°
2026-05-06 15:56 47.29255 10.70494 9556 ft 230 kts 89°
2026-05-06 15:56 47.29379 10.72822 9527 ft 226 kts 89°
2026-05-06 15:57 47.29499 10.75149 9543 ft 230 kts 89°
2026-05-06 15:57 47.29619 10.77510 9539 ft 231 kts 90°
2026-05-06 15:57 47.29737 10.79867 9539 ft 231 kts 89°
2026-05-06 15:57 47.29855 10.82222 9536 ft 230 kts 90°
2026-05-06 15:58 47.29971 10.84575 9535 ft 230 kts 90°
2026-05-06 15:58 47.30085 10.86920 9518 ft 230 kts 89°
2026-05-06 15:58 47.30197 10.89167 9525 ft 216 kts 89°
2026-05-06 15:58 47.30307 10.91274 9519 ft 199 kts 90°
2026-05-06 15:59 47.30409 10.93283 9486 ft 197 kts 90°
2026-05-06 15:59 47.30523 10.95380 8762 ft 216 kts 89°
2026-05-06 15:59 47.30633 10.97660 8009 ft 229 kts 88°
2026-05-06 15:59 47.30729 10.99957 7675 ft 221 kts 88°
2026-05-06 16:00 47.30831 11.02182 7249 ft 219 kts 87°
2026-05-06 16:00 47.30930 11.04449 6712 ft 220 kts 86°
2026-05-06 16:00 47.30946 11.06662 6393 ft 207 kts 98°
2026-05-06 16:00 47.30578 11.08628 6070 ft 198 kts 113°
2026-05-06 16:01 47.30009 11.10439 5738 ft 186 kts 114°
2026-05-06 16:01 47.29471 11.12074 5474 ft 175 kts 115°
2026-05-06 16:01 47.28942 11.13664 5213 ft 171 kts 115°
2026-05-06 16:01 47.28415 11.15246 4947 ft 172 kts 116°
2026-05-06 16:02 47.27888 11.16828 4675 ft 173 kts 116°
2026-05-06 16:02 47.27358 11.18426 4384 ft 173 kts 116°
2026-05-06 16:02 47.26853 11.19946 4127 ft 160 kts 116°
2026-05-06 16:02 47.26377 11.21388 3851 ft 154 kts 116°
2026-05-06 16:03 47.25946 11.22811 3554 ft 150 kts 113°
2026-05-06 16:03 47.25598 11.24249 3330 ft 149 kts 106°
2026-05-06 16:03 47.25390 11.25745 3137 ft 149 kts 98°
2026-05-06 16:03 47.25337 11.27259 2947 ft 149 kts 89°
2026-05-06 16:04 47.25424 11.28776 2714 ft 149 kts 85°
2026-05-06 16:04 47.25580 11.30260 2454 ft 144 kts 85°
2026-05-06 16:04 47.25746 11.31722 2233 ft 142 kts 85°
2026-05-06 16:04 47.25891 11.33129 1951 ft 139 kts 90°
2026-05-06 16:05 47.26042 11.34429 1951 ft 118 kts 90°
2026-05-06 16:05 47.26216 11.35692 2493 ft 132 kts 85°
2026-05-06 16:05 47.26357 11.37030 3104 ft 145 kts 84°
2026-05-06 16:05 47.26457 11.38588 3757 ft 159 kts 88°
2026-05-06 16:06 47.26519 11.40264 4507 ft 168 kts 88°
2026-05-06 16:06 47.26587 11.42020 5269 ft 179 kts 88°
2026-05-06 16:06 47.26672 11.43969 5957 ft 204 kts 88°
2026-05-06 16:06 47.26773 11.46181 6618 ft 230 kts 88°
2026-05-06 16:07 47.26895 11.48600 7562 ft 241 kts 89°
2026-05-06 16:07 47.27047 11.51115 8692 ft 253 kts 88°
2026-05-06 16:07 47.27217 11.53773 9236 ft 271 kts 88°
2026-05-06 16:07 47.27392 11.56484 9439 ft 262 kts 88°
2026-05-06 16:08 47.27592 11.59132 9485 ft 261 kts 80°
2026-05-06 16:08 47.28306 11.61607 9493 ft 265 kts 58°
2026-05-06 16:08 47.29319 11.63877 9491 ft 265 kts 58°
2026-05-06 16:08 47.30335 11.66138 9487 ft 265 kts 58°
2026-05-06 16:09 47.31363 11.68420 9489 ft 267 kts 58°
2026-05-06 16:09 47.32384 11.70684 9485 ft 265 kts 58°
2026-05-06 16:09 47.33403 11.72952 9482 ft 265 kts 58°
2026-05-06 16:09 47.34418 11.75222 9482 ft 265 kts 59°
2026-05-06 16:10 47.35428 11.77485 9481 ft 267 kts 59°
2026-05-06 16:10 47.36446 11.79767 9473 ft 266 kts 58°
2026-05-06 16:10 47.37462 11.82041 9459 ft 265 kts 59°
2026-05-06 16:10 47.38487 11.84300 9465 ft 266 kts 57°
2026-05-06 16:11 47.39524 11.86512 9461 ft 265 kts 57°
2026-05-06 16:11 47.40578 11.88734 9452 ft 264 kts 57°
2026-05-06 16:11 47.41634 11.90958 9451 ft 265 kts 56°
2026-05-06 16:11 47.42854 11.92979 9463 ft 266 kts 34°
2026-05-06 16:12 47.44537 11.93976 9450 ft 259 kts
2026-05-06 16:12 47.46295 11.93641 9454 ft 253 kts 331°
2026-05-06 16:12 47.47648 11.92117 9453 ft 242 kts 300°
2026-05-06 16:12 47.48336 11.89908 9451 ft 236 kts 283°
2026-05-06 16:13 47.48771 11.87572 9458 ft 236 kts 279°
2026-05-06 16:13 47.49177 11.85217 9455 ft 236 kts 279°
2026-05-06 16:13 47.49581 11.82866 9456 ft 236 kts 279°
2026-05-06 16:13 47.49981 11.80510 9460 ft 236 kts 279°
2026-05-06 16:14 47.50372 11.78154 9465 ft 235 kts 279°
2026-05-06 16:14 47.50758 11.75804 9460 ft 236 kts 279°
2026-05-06 16:14 47.51146 11.73443 9468 ft 236 kts 279°
2026-05-06 16:14 47.51537 11.71080 9477 ft 242 kts 279°
2026-05-06 16:15 47.51954 11.68484 9476 ft 271 kts 279°
2026-05-06 16:15 47.52144 11.65700 9480 ft 274 kts 266°
2026-05-06 16:15 47.52075 11.62872 9484 ft 277 kts 265°
2026-05-06 16:15 47.51979 11.60027 9485 ft 276 kts 264°
2026-05-06 16:16 47.51884 11.57203 9489 ft 274 kts 264°
2026-05-06 16:16 47.51788 11.54362 9490 ft 277 kts 264°
2026-05-06 16:16 47.51701 11.51520 9496 ft 276 kts 265°
2026-05-06 16:16 47.51615 11.48670 9497 ft 277 kts 264°
2026-05-06 16:17 47.51515 11.45824 9500 ft 278 kts 264°
2026-05-06 16:17 47.51421 11.42973 9500 ft 278 kts 264°
2026-05-06 16:17 47.51325 11.40145 9498 ft 279 kts 265°
2026-05-06 16:17 47.51224 11.37280 9501 ft 279 kts 264°
2026-05-06 16:18 47.51124 11.34409 9503 ft 280 kts 264°
2026-05-06 16:18 47.51027 11.31527 9503 ft 280 kts 265°
2026-05-06 16:18 47.50925 11.28654 9511 ft 280 kts 264°
2026-05-06 16:18 47.50824 11.25774 9514 ft 280 kts 264°
2026-05-06 16:19 47.50721 11.22890 9513 ft 281 kts 264°
2026-05-06 16:19 47.50621 11.20005 9515 ft 281 kts 264°
2026-05-06 16:19 47.50519 11.17121 9515 ft 281 kts 264°
2026-05-06 16:19 47.50421 11.14236 9523 ft 281 kts 265°
2026-05-06 16:20 47.50319 11.11346 9518 ft 281 kts 264°
2026-05-06 16:20 47.50223 11.08456 9525 ft 281 kts 264°
2026-05-06 16:20 47.50122 11.05570 9525 ft 281 kts 264°
2026-05-06 16:20 47.50017 11.02686 9527 ft 281 kts 264°
2026-05-06 16:21 47.49916 10.99808 9539 ft 281 kts 264°
2026-05-06 16:21 47.49798 10.96927 9539 ft 280 kts 260°
2026-05-06 16:21 47.49444 10.94108 9544 ft 279 kts 255°
2026-05-06 16:21 47.49010 10.91317 9546 ft 278 kts 254°
2026-05-06 16:22 47.48568 10.88530 9549 ft 278 kts 254°
2026-05-06 16:22 47.48130 10.85786 9550 ft 278 kts 254°
2026-05-06 16:22 47.47689 10.83011 9555 ft 278 kts 254°
2026-05-06 16:22 47.47248 10.80227 9557 ft 278 kts 254°
2026-05-06 16:23 47.46807 10.77458 9554 ft 272 kts 253°
2026-05-06 16:23 47.46386 10.74805 9555 ft 259 kts 254°
2026-05-06 16:23 47.46003 10.72297 9566 ft 242 kts 254°
2026-05-06 16:23 47.45648 10.69927 9569 ft 233 kts 254°
2026-05-06 16:24 47.45303 10.67595 9572 ft 231 kts 254°
2026-05-06 16:24 47.44893 10.65301 9579 ft 230 kts 247°
2026-05-06 16:24 47.44307 10.63112 9576 ft 229 kts 244°
2026-05-06 16:24 47.43687 10.60948 9589 ft 229 kts 244°
2026-05-06 16:25 47.43059 10.58785 9580 ft 228 kts 244°
2026-05-06 16:25 47.42435 10.56636 9582 ft 228 kts 244°
2026-05-06 16:25 47.41806 10.54473 9589 ft 229 kts 244°
2026-05-06 16:25 47.41179 10.52318 9578 ft 228 kts 244°
2026-05-06 16:26 47.40546 10.50169 9590 ft 228 kts 241°
2026-05-06 16:26 47.39543 10.48435 9585 ft 223 kts 210°
2026-05-06 16:26 47.38067 10.47792 9596 ft 226 kts 184°
2026-05-06 16:26 47.36484 10.47786 9585 ft 228 kts 180°
2026-05-06 16:27 47.34896 10.47898 9583 ft 229 kts 177°
2026-05-06 16:27 47.33403 10.48657 9577 ft 234 kts 146°
2026-05-06 16:27 47.32368 10.50516 9582 ft 241 kts 120°
2026-05-06 16:27 47.31702 10.52809 9576 ft 245 kts 115°
2026-05-06 16:28 47.31096 10.55163 9573 ft 245 kts 114°
2026-05-06 16:28 47.30491 10.57494 9573 ft 243 kts 114°
2026-05-06 16:28 47.29883 10.59815 9564 ft 243 kts 115°
2026-05-06 16:28 47.29284 10.62147 9560 ft 244 kts 114°
2026-05-06 16:29 47.28781 10.64537 9560 ft 247 kts 101°
2026-05-06 16:29 47.28733 10.67077 9554 ft 250 kts 89°
2026-05-06 16:29 47.28901 10.69629 9547 ft 249 kts 85°
2026-05-06 16:29 47.29122 10.72192 9297 ft 252 kts 86°
2026-05-06 16:30 47.29332 10.74713 9246 ft 244 kts 86°
2026-05-06 16:30 47.29455 10.76338 9197 ft 238 kts 87°
2026-05-06 16:30 47.29670 10.79522 9113 ft 229 kts 87°
2026-05-06 16:30 47.29807 10.81843 9062 ft 227 kts 88°
2026-05-06 16:31 47.29933 10.84164 9005 ft 226 kts 89°
2026-05-06 16:31 47.30053 10.86468 8984 ft 225 kts 88°
2026-05-06 16:31 47.30169 10.88774 8914 ft 226 kts 88°
2026-05-06 16:31 47.30285 10.91072 8779 ft 226 kts 89°
2026-05-06 16:32 47.30398 10.93349 8477 ft 225 kts 88°
2026-05-06 16:32 47.30508 10.95649 8145 ft 223 kts 88°
2026-05-06 16:32 47.30616 10.97907 7782 ft 217 kts 88°
2026-05-06 16:32 47.30722 11.00074 7442 ft 207 kts 87°
2026-05-06 16:33 47.30823 11.02129 7115 ft 195 kts 87°
2026-05-06 16:33 47.30917 11.04062 6821 ft 185 kts 87°
2026-05-06 16:33 47.30989 11.05932 6532 ft 181 kts 92°
2026-05-06 16:34 47.30332 11.09440 5943 ft 178 kts 114°
2026-05-06 16:34 47.29795 11.11086 5649 ft 178 kts 114°
2026-05-06 16:34 47.29251 11.12727 5373 ft 178 kts 115°
2026-05-06 16:34 47.28707 11.14360 5098 ft 178 kts 114°
2026-05-06 16:35 47.28348 11.15437 4918 ft 176 kts 115°
2026-05-06 16:35 47.27805 11.17072 4627 ft 174 kts 116°
2026-05-06 16:35 47.27109 11.19184 4251 ft 172 kts 116°
2026-05-06 16:35 47.26761 11.20233 4070 ft 172 kts 116°
2026-05-06 16:36 47.26238 11.21811 3795 ft 171 kts 116°
2026-05-06 16:36 47.25724 11.23379 3524 ft 170 kts 116°
2026-05-06 16:36 47.25300 11.24924 3253 ft 157 kts 103°
2026-05-06 16:36 47.25203 11.26491 2918 ft 152 kts 89°
2026-05-06 16:37 47.25330 11.28003 2725 ft 149 kts 84°
2026-05-06 16:37 47.25505 11.29494 2507 ft 145 kts 85°
2026-05-06 16:37 47.25654 11.30949 2310 ft 142 kts 85°
2026-05-06 16:37 47.25810 11.32406 2073 ft 143 kts 86°
2026-05-06 16:38 47.25967 11.33815 1898 ft 128 kts 88°
2026-05-06 16:38 47.26048 11.34716 1902 ft 46 kts 81°
2026-05-06 16:38 47.26093 11.35098 1903 ft 32 kts 81°
2026-05-06 16:38 47.26058 11.35257 1900 ft 16 kts 163°
2026-05-06 16:39 47.25981 11.35277 1893 ft 8 kts 171°
2026-05-06 16:39 47.25948 11.35285 1891 ft 0 kts 171°
2026-05-06 16:40 47.25939 11.35287 1895 ft 3 kts 171°
2026-05-06 16:41 47.25911 11.35285 1899 ft 5 kts 199°
2026-05-06 16:41 47.25896 11.35241 1899 ft 4 kts 264°
2026-05-06 16:41 47.25893 11.35202 1886 ft 3 kts 263°
2026-05-06 16:41 47.25890 11.35164 1894 ft 6 kts 262°
2026-05-06 16:42 47.25878 11.35056 1888 ft 13 kts 261°
2026-05-06 16:42 47.25864 11.34932 1892 ft 11 kts 260°
2026-05-06 16:42 47.25853 11.34837 1899 ft 4 kts 260°
2026-05-06 16:42 47.25851 11.34822 1894 ft 1 kts 260°
2026-05-06 16:43 47.25850 11.34819 1889 ft 1 kts 252°
2026-05-06 16:43 47.25829 11.34807 1894 ft 6 kts 192°
2026-05-06 16:43 47.25797 11.34810 1899 ft 2 kts 171°
2026-05-06 16:43 47.25794 11.34810 1899 ft 0 kts 171°
2026-05-06 16:45 47.25795 11.34810 1899 ft 0 kts 171°